Location: Boulder, CO
(40.0083°N, 105.2472°W)
Time: 16:03:31
(UTC-06:00)

SORCE - Visible Passes

Search period start: 27 May 2016 00:00
Search period end: 06 June 2016 00:00
Orbit: 588 x 618 km, 40.0° (Epoch: 27 May)

Date Brightness Start Highest point End Pass type
(mag) Time Alt. Az. Time Alt. Az. Time Alt. Az.
03 Jun 8.0 04:39:29 10° S 04:42:27 18° SE 04:45:24 10° ESE visible
04 Jun 7.3 04:49:41 10° SSW 04:53:28 28° SSE 04:57:15 10° E visible
05 Jun 8.2 03:23:07 12° SE 03:23:21 12° SE 03:24:58 10° ESE visible
05 Jun 6.7 05:00:23 10° SW 05:04:34 42° SSE 05:08:45 10° E visible
